QPF
0.05 0.05 0.07 0.08 0.06 0.07 0.06 0.04 0.06 0.07 0.08 0.07 0.07 0.10 0.11 0.14 0.11 0.12 0.12 0.13 0.10 0.13 0.18 0.16 0.11 0.09 0.05 0.03 0.03 0.04 0.07 0.08 0.08 0.09 0.08 0.07 0.06 0.06 0.06 0.05 0.06 0.08 0.08
0.07 0.06 0.05 0.06 0.06 0.06 0.04 0.04 0.04 0.03 0.04 0.05 0.04 0.05 0.09 0.17 0.13 0.15 0.13 0.13 0.13 0.15 0.15 0.14 0.13 0.13 0.08 0.05 0.05 0.07 0.08 0.09 0.11 0.10 0.08 0.06 0.06 0.06 0.07 0.07 0.08 0.09 0.10
0.06 0.06 0.05 0.06 0.05 0.04 0.04 0.05 0.05 0.04 0.04 0.04 0.04 0.06 0.09 0.15 0.10 0.11 0.13 0.16 0.19 0.17 0.12 0.11 0.13 0.13 0.09 0.06 0.07 0.08 0.09 0.10 0.09 0.07 0.06 0.08 0.09 0.08 0.09 0.10 0.11 0.11 0.10
0.05 0.05 0.06 0.06 0.05 0.04 0.04 0.05 0.05 0.05 0.05 0.05 0.08 0.09 0.08 0.10 0.09 0.09 0.12 0.16 0.21 0.20 0.16 0.13 0.12 0.10 0.08 0.07 0.08 0.09 0.10 0.09 0.07 0.06 0.07 0.07 0.08 0.09 0.11 0.13 0.12 0.10 0.08
0.04 0.04 0.05 0.05 0.03 0.03 0.03 0.03 0.04 0.04 0.05 0.06 0.09 0.09 0.07 0.05 0.07 0.07 0.07 0.11 0.18 0.22 0.22 0.21 0.20 0.14 0.10 0.10 0.08 0.08 0.10 0.10 0.09 0.06 0.05 0.05 0.05 0.06 0.08 0.07 0.07 0.07 0.05
0.04 0.03 0.04 0.04 0.02 0.03 0.03 0.04 0.04 0.04 0.04 0.05 0.05 0.05 0.05 0.04 0.04 0.04 0.05 0.07 0.11 0.16 0.21 0.27 0.31 0.22 0.14 0.12 0.10 0.09 0.10 0.08 0.09 0.07 0.05 0.04 0.04 0.05 0.06 0.05 0.05 0.04 0.02
0.03 0.03 0.02 0.04 0.03 0.03 0.03 0.03 0.04 0.04 0.03 0.04 0.04 0.04 0.03 0.03 0.04 0.04 0.05 0.07 0.08 0.10 0.14 0.20 0.25 0.22 0.19 0.18 0.13 0.10 0.11 0.10 0.10 0.09 0.08 0.06 0.05 0.06 0.05 0.05 0.04 0.03 0.02
0.03 0.03 0.03 0.03 0.03 0.04 0.04 0.03 0.03 0.04 0.03 0.03 0.04 0.04 0.03 0.03 0.02 0.02 0.04 0.06 0.07 0.09 0.10 0.11 0.15 0.17 0.16 0.17 0.16 0.13 0.13 0.12 0.13 0.14 0.12 0.08 0.06 0.06 0.05 0.05 0.04 0.03 0.02
0.03 0.02 0.01 0.02 0.04 0.03 0.04 0.04 0.03 0.04 0.05 0.03 0.04 0.05 0.06 0.05 0.04 0.02 0.02 0.02 0.04 0.06 0.06 0.07 0.09 0.12 0.13 0.13 0.13 0.13 0.15 0.14 0.13 0.14 0.13 0.08 0.06 0.06 0.05 0.06 0.07 0.08 0.08
0.03 0.03 0.03 0.03 0.04 0.04 0.04 0.03 0.02 0.03 0.04 0.05 0.04 0.04 0.04 0.05 0.05 0.04 0.03 0.02 0.02 0.02 0.03 0.03 0.04 0.07 0.09 0.09 0.09 0.09 0.10 0.12 0.12 0.12 0.14 0.11 0.07 0.06 0.06 0.06 0.06 0.07 0.08
0.03 0.03 0.03 0.02 0.03 0.03 0.04 0.03 0.05 0.04 0.03 0.04 0.04 0.04 0.05 0.05 0.05 0.05 0.04 0.03 0.02 0.02 0.02 0.03 0.04 0.05 0.06 0.07 0.07 0.05 0.06 0.09 0.14 0.14 0.17 0.17 0.11 0.09 0.08 0.07 0.06 0.05 0.04
0.05 0.03 0.02 0.02 0.02 0.02 0.03 0.03 0.03 0.03 0.03 0.04 0.04 0.03 0.05 0.05 0.05 0.05 0.04 0.03 0.03 0.02 0.02 0.02 0.03 0.03 0.04 0.05 0.06 0.07 0.08 0.10 0.16 0.18 0.17 0.18 0.17 0.14 0.11 0.10 0.10 0.09 0.07
0.10 0.09 0.04 0.03 0.03 0.03 0.03 0.02 0.02 0.02 0.02 0.03 0.03 0.03 0.04 0.04 0.05 0.05 0.05 0.04 0.03 0.02 0.02 0.02 0.02 0.02 0.03 0.04 0.05 0.07 0.08 0.09 0.11 0.14 0.16 0.14 0.13 0.14 0.13 0.11 0.09 0.09 0.08
0.07 0.10 0.10 0.06 0.03 0.03 0.03 0.02 0.02 0.02 0.02 0.02 0.02 0.04 0.04 0.04 0.04 0.04 0.05 0.05 0.04 0.03 0.03 0.03 0.03 0.02 0.03 0.03 0.04 0.05 0.06 0.08 0.09 0.12 0.15 0.17 0.12 0.10 0.08 0.07 0.06 0.06 0.07
0.02 0.04 0.07 0.09 0.08 0.05 0.03 0.02 0.02 0.01 0.01 0.01 0.02 0.02 0.02 0.03 0.03 0.03 0.04 0.05 0.05 0.04 0.03 0.03 0.04 0.03 0.03 0.04 0.05 0.04 0.05 0.05 0.07 0.08 0.09 0.14 0.13 0.08 0.06 0.04 0.03 0.03 0.04
0.01 0.02 0.03 0.04 0.07 0.08 0.06 0.03 0.02 0.01 0.01 0.01 0.02 0.01 0.01 0.02 0.02 0.03 0.04 0.04 0.04 0.04 0.04 0.03 0.04 0.05 0.06 0.04 0.04 0.04 0.05 0.06 0.06 0.06 0.07 0.11 0.14 0.09 0.06 0.04 0.02 0.02 0.02
0.01 0.01 0.03 0.02 0.02 0.04 0.05 0.06 0.05 0.03 0.02 0.02 0.02 0.02 0.01 0.02 0.02 0.02 0.03 0.03 0.03 0.03 0.03 0.03 0.03 0.04 0.06 0.05 0.04 0.04 0.05 0.06 0.06 0.06 0.06 0.07 0.13 0.12 0.07 0.04 0.03 0.02 0.02
0.01 0.01 0.02 0.02 0.02 0.02 0.02 0.03 0.05 0.06 0.06 0.04 0.03 0.03 0.02 0.02 0.02 0.02 0.02 0.02 0.02 0.03 0.03 0.03 0.03 0.04 0.04 0.04 0.04 0.03 0.03 0.03 0.03 0.04 0.04 0.05 0.11 0.15 0.09 0.06 0.04 0.03 0.03
0.01 0.01 0.01 0.01 0.01 0.02 0.02 0.01 0.02 0.02 0.03 0.04 0.04 0.05 0.05 0.04 0.03 0.03 0.02 0.02 0.02 0.03 0.03 0.03 0.03 0.03 0.03 0.03 0.03 0.02 0.02 0.02 0.01 0.01 0.02 0.03 0.07 0.14 0.11 0.07 0.05 0.05 0.05
0.01 0.01 0.00 0.00 0.00 0.01 0.02 0.02 0.01 0.01 0.01 0.01 0.01 0.02 0.02 0.03 0.05 0.05 0.04 0.03 0.03 0.03 0.04 0.04 0.04 0.04 0.03 0.03 0.03 0.03 0.03 0.02 0.02 0.02 0.02 0.03 0.05 0.11 0.11 0.09 0.07 0.07 0.06
0.01 0.01 0.00 0.00 0.00 0.01 0.01 0.01 0.01 0.01 0.01 0.01 0.01 0.01 0.01 0.02 0.02 0.03 0.04 0.04 0.05 0.05 0.04 0.04 0.04 0.04 0.04 0.04 0.04 0.03 0.03 0.03 0.03 0.03 0.04 0.05 0.06 0.09 0.11 0.11 0.09 0.07 0.06
0.01 0.01 0.00 0.00 0.00 0.00 0.00 0.00 0.01 0.01 0.01 0.01 0.01 0.01 0.01 0.01 0.01 0.02 0.02 0.02 0.03 0.04 0.05 0.06 0.05 0.04 0.04 0.04 0.05 0.05 0.05 0.05 0.05 0.05 0.05 0.07 0.08 0.10 0.12 0.11 0.10 0.07 0.05
0.01 0.01 0.00 0.00 0.00 0.01 0.00 0.00 0.00 0.01 0.01 0.01 0.01 0.01 0.01 0.01 0.01 0.01 0.01 0.01 0.02 0.02 0.02 0.03 0.03 0.04 0.05 0.06 0.07 0.06 0.06 0.06 0.06 0.07 0.08 0.09 0.10 0.10 0.09 0.08 0.08 0.07 0.05
0.01 0.01 0.01 0.01 0.01 0.01 0.00 0.00 0.00 0.01 0.01 0.01 0.01 0.01 0.01 0.01 0.02 0.02 0.02 0.02 0.02 0.02 0.02 0.02 0.03 0.04 0.05 0.06 0.07 0.08 0.09 0.09 0.09 0.10 0.11 0.11 0.12 0.12 0.09 0.08 0.05 0.05 0.05
0.02 0.01 0.01 0.01 0.01 0.01 0.01 0.00 0.00 0.00 0.01 0.01 0.01 0.01 0.01 0.01 0.02 0.02 0.02 0.02 0.03 0.03 0.02 0.02 0.03 0.04 0.04 0.05 0.06 0.08 0.09 0.09 0.08 0.09 0.11 0.12 0.12 0.12 0.10 0.09 0.06 0.05 0.05
0.01 0.01 0.01 0.01 0.02 0.02 0.02 0.01 0.01 0.01 0.01 0.01 0.01 0.01 0.01 0.01 0.01 0.02 0.02 0.02 0.03 0.02 0.03 0.03 0.03 0.03 0.03 0.03 0.03 0.04 0.05 0.06 0.07 0.07 0.09 0.10 0.09 0.10 0.09 0.08 0.08 0.06 0.05
MSLP
1004.72 1004.71 1004.75 1004.85 1005.03 1005.28 1005.60 1005.97 1006.38 1006.80 1007.21 1007.61 1007.97 1008.30 1008.60 1008.87 1009.12 1009.36 1009.58 1009.79 1010.02 1010.26 1010.54 1010.86 1011.22 1011.62 1012.02 1012.43 1012.82 1013.17 1013.50 1013.81 1014.12 1014.44 1014.82 1015.22 1015.66 1016.12 1016.55 1016.94 1017.28 1017.55 1017.78
1005.47 1005.40 1005.40 1005.48 1005.66 1005.94 1006.31 1006.74 1007.21 1007.68 1008.12 1008.50 1008.83 1009.08 1009.28 1009.44 1009.56 1009.69 1009.82 1009.98 1010.19 1010.44 1010.74 1011.09 1011.47 1011.86 1012.26 1012.63 1012.97 1013.29 1013.58 1013.87 1014.17 1014.51 1014.89 1015.30 1015.74 1016.19 1016.61 1016.98 1017.30 1017.57 1017.79
1006.26 1006.13 1006.08 1006.13 1006.28 1006.54 1006.90 1007.32 1007.78 1008.23 1008.64 1008.98 1009.24 1009.42 1009.54 1009.61 1009.67 1009.74 1009.84 1010.00 1010.22 1010.50 1010.83 1011.20 1011.60 1012.00 1012.37 1012.72 1013.03 1013.32 1013.59 1013.87 1014.17 1014.51 1014.89 1015.30 1015.73 1016.16 1016.56 1016.92 1017.23 1017.50 1017.74
1007.00 1006.82 1006.71 1006.70 1006.78 1006.98 1007.27 1007.62 1008.01 1008.38 1008.72 1008.99 1009.19 1009.32 1009.39 1009.44 1009.48 1009.55 1009.67 1009.86 1010.11 1010.42 1010.78 1011.18 1011.58 1011.97 1012.33 1012.66 1012.96 1013.23 1013.50 1013.79 1014.10 1014.44 1014.82 1015.22 1015.63 1016.03 1016.41 1016.75 1017.07 1017.35 1017.61
1007.64 1007.41 1007.24 1007.15 1007.16 1007.26 1007.44 1007.67 1007.94 1008.21 1008.46 1008.66 1008.80 1008.90 1008.98 1009.04 1009.11 1009.23 1009.39 1009.62 1009.90 1010.24 1010.61 1011.00 1011.39 1011.76 1012.10 1012.42 1012.72 1013.02 1013.31 1013.62 1013.95 1014.30 1014.68 1015.06 1015.45 1015.82 1016.18 1016.51 1016.82 1017.12 1017.41
1008.24 1007.95 1007.72 1007.56 1007.47 1007.45 1007.50 1007.60 1007.74 1007.89 1008.04 1008.17 1008.28 1008.38 1008.48 1008.59 1008.72 1008.89 1009.10 1009.36 1009.66 1009.99 1010.33 1010.68 1011.03 1011.36 1011.69 1012.01 1012.33 1012.66 1012.99 1013.34 1013.72 1014.10 1014.48 1014.86 1015.22 1015.56 1015.90 1016.22 1016.53 1016.84 1017.17
1008.84 1008.53 1008.25 1008.02 1007.83 1007.70 1007.62 1007.59 1007.60 1007.63 1007.69 1007.76 1007.86 1007.97 1008.10 1008.26 1008.45 1008.66 1008.89 1009.14 1009.41 1009.68 1009.96 1010.24 1010.51 1010.80 1011.10 1011.43 1011.78 1012.15 1012.55 1012.97 1013.40 1013.82 1014.22 1014.59 1014.94 1015.27 1015.58 1015.88 1016.20 1016.53 1016.88
1009.54 1009.21 1008.90 1008.62 1008.37 1008.15 1007.96 1007.81 1007.70 1007.63 1007.61 1007.63 1007.70 1007.82 1007.98 1008.17 1008.38 1008.59 1008.80 1009.00 1009.19 1009.36 1009.52 1009.69 1009.88 1010.10 1010.37 1010.70 1011.08 1011.52 1011.99 1012.48 1012.98 1013.45 1013.88 1014.27 1014.62 1014.93 1015.23 1015.52 1015.84 1016.18 1016.54
1010.36 1010.04 1009.72 1009.42 1009.13 1008.84 1008.58 1008.34 1008.13 1007.97 1007.88 1007.86 1007.90 1008.00 1008.15 1008.33 1008.52 1008.69 1008.83 1008.93 1009.00 1009.02 1009.04 1009.08 1009.15 1009.30 1009.52 1009.85 1010.26 1010.76 1011.31 1011.88 1012.44 1012.98 1013.46 1013.87 1014.23 1014.54 1014.84 1015.13 1015.44 1015.78 1016.15
1011.25 1010.95 1010.66 1010.36 1010.06 1009.74 1009.42 1009.12 1008.84 1008.62 1008.46 1008.38 1008.38 1008.44 1008.56 1008.69 1008.82 1008.91 1008.94 1008.91 1008.82 1008.69 1008.56 1008.45 1008.41 1008.47 1008.64 1008.96 1009.39 1009.92 1010.52 1011.16 1011.79 1012.38 1012.90 1013.36 1013.74 1014.08 1014.38 1014.68 1014.99 1015.33 1015.70
1012.09 1011.83 1011.58 1011.30 1011.01 1010.69 1010.35 1010.00 1009.68 1009.40 1009.20 1009.06 1009.00 1009.02 1009.07 1009.13 1009.17 1009.15 1009.07 1008.90 1008.66 1008.39 1008.11 1007.87 1007.71 1007.68 1007.81 1008.08 1008.50 1009.05 1009.68 1010.35 1011.01 1011.64 1012.21 1012.70 1013.12 1013.49 1013.82 1014.14 1014.47 1014.82 1015.18
1012.79 1012.57 1012.35 1012.11 1011.83 1011.52 1011.18 1010.82 1010.48 1010.16 1009.90 1009.72 1009.61 1009.56 1009.54 1009.52 1009.48 1009.37 1009.17 1008.89 1008.54 1008.14 1007.75 1007.40 1007.15 1007.04 1007.09 1007.31 1007.69 1008.20 1008.81 1009.47 1010.14 1010.78 1011.37 1011.90 1012.36 1012.77 1013.14 1013.50 1013.86 1014.22 1014.60
1013.27 1013.08 1012.88 1012.67 1012.42 1012.13 1011.80 1011.44 1011.08 1010.74 1010.45 1010.22 1010.06 1009.96 1009.88 1009.81 1009.70 1009.52 1009.25 1008.90 1008.47 1008.00 1007.53 1007.11 1006.78 1006.59 1006.56 1006.70 1007.00 1007.44 1007.97 1008.58 1009.20 1009.82 1010.41 1010.96 1011.45 1011.91 1012.34 1012.75 1013.15 1013.55 1013.95
1013.54 1013.36 1013.18 1012.98 1012.75 1012.47 1012.15 1011.80 1011.44 1011.09 1010.78 1010.53 1010.34 1010.20 1010.09 1009.98 1009.83 1009.62 1009.33 1008.95 1008.50 1008.00 1007.50 1007.04 1006.66 1006.40 1006.28 1006.31 1006.50 1006.81 1007.23 1007.72 1008.26 1008.82 1009.38 1009.92 1010.44 1010.93 1011.42 1011.88 1012.34 1012.79 1013.22
1013.68 1013.48 1013.30 1013.12 1012.90 1012.63 1012.32 1011.98 1011.62 1011.26 1010.95 1010.68 1010.47 1010.32 1010.19 1010.07 1009.93 1009.72 1009.45 1009.09 1008.66 1008.18 1007.68 1007.20 1006.78 1006.46 1006.24 1006.16 1006.20 1006.36 1006.63 1006.98 1007.39 1007.84 1008.33 1008.83 1009.35 1009.87 1010.40 1010.92 1011.44 1011.94 1012.43
1013.81 1013.61 1013.42 1013.23 1013.01 1012.75 1012.44 1012.10 1011.74 1011.39 1011.06 1010.80 1010.58 1010.42 1010.30 1010.19 1010.06 1009.89 1009.65 1009.34 1008.95 1008.51 1008.04 1007.56 1007.12 1006.74 1006.43 1006.23 1006.13 1006.12 1006.21 1006.39 1006.64 1006.96 1007.35 1007.78 1008.26 1008.77 1009.32 1009.88 1010.44 1011.00 1011.54
1014.06 1013.85 1013.66 1013.46 1013.24 1012.98 1012.67 1012.33 1011.96 1011.60 1011.27 1010.99 1010.77 1010.60 1010.49 1010.39 1010.28 1010.14 1009.95 1009.68 1009.35 1008.95 1008.51 1008.05 1007.59 1007.16 1006.78 1006.47 1006.23 1006.07 1005.99 1005.99 1006.08 1006.25 1006.50 1006.83 1007.23 1007.70 1008.22 1008.79 1009.38 1009.97 1010.56
1014.48 1014.27 1014.09 1013.89 1013.67 1013.41 1013.09 1012.74 1012.36 1011.99 1011.64 1011.34 1011.10 1010.93 1010.80 1010.70 1010.61 1010.49 1010.32 1010.08 1009.78 1009.42 1009.00 1008.55 1008.09 1007.63 1007.20 1006.80 1006.46 1006.16 1005.94 1005.78 1005.71 1005.73 1005.83 1006.03 1006.32 1006.70 1007.17 1007.69 1008.26 1008.86 1009.47
1015.02 1014.84 1014.68 1014.50 1014.28 1014.02 1013.69 1013.32 1012.93 1012.53 1012.16 1011.84 1011.58 1011.38 1011.23 1011.11 1011.00 1010.87 1010.70 1010.47 1010.17 1009.82 1009.42 1008.97 1008.51 1008.04 1007.58 1007.14 1006.73 1006.35 1006.02 1005.75 1005.54 1005.41 1005.37 1005.42 1005.57 1005.83 1006.18 1006.62 1007.13 1007.70 1008.30
1015.57 1015.44 1015.31 1015.15 1014.94 1014.68 1014.35 1013.98 1013.56 1013.15 1012.75 1012.40 1012.11 1011.88 1011.70 1011.54 1011.40 1011.24 1011.03 1010.78 1010.47 1010.10 1009.69 1009.25 1008.79 1008.33 1007.87 1007.42 1006.99 1006.58 1006.20 1005.84 1005.53 1005.28 1005.10 1005.00 1005.00 1005.10 1005.31 1005.62 1006.03 1006.52 1007.08
1015.99 1015.90 1015.80 1015.68 1015.49 1015.23 1014.90 1014.52 1014.11 1013.68 1013.28 1012.92 1012.60 1012.35 1012.13 1011.94 1011.75 1011.54 1011.28 1010.98 1010.63 1010.23 1009.80 1009.36 1008.90 1008.46 1008.02 1007.60 1007.19 1006.78 1006.39 1006.00 1005.64 1005.29 1005.00 1004.76 1004.60 1004.53 1004.57 1004.73 1005.00 1005.38 1005.86
1016.12 1016.08 1016.02 1015.91 1015.74 1015.50 1015.18 1014.82 1014.42 1014.01 1013.62 1013.27 1012.96 1012.70 1012.46 1012.24 1012.01 1011.75 1011.44 1011.09 1010.69 1010.25 1009.79 1009.33 1008.88 1008.45 1008.05 1007.67 1007.30 1006.94 1006.56 1006.18 1005.78 1005.38 1005.00 1004.64 1004.34 1004.11 1003.98 1003.98 1004.09 1004.34 1004.71
1015.92 1015.89 1015.84 1015.75 1015.60 1015.39 1015.11 1014.78 1014.42 1014.06 1013.72 1013.41 1013.14 1012.90 1012.68 1012.45 1012.20 1011.90 1011.54 1011.14 1010.69 1010.20 1009.71 1009.22 1008.77 1008.36 1007.99 1007.64 1007.33 1007.00 1006.68 1006.31 1005.92 1005.49 1005.04 1004.60 1004.18 1003.82 1003.55 1003.38 1003.35 1003.45 1003.70
1015.39 1015.35 1015.30 1015.22 1015.09 1014.90 1014.66 1014.40 1014.11 1013.83 1013.57 1013.34 1013.14 1012.96 1012.78 1012.57 1012.32 1012.01 1011.63 1011.18 1010.69 1010.16 1009.63 1009.12 1008.65 1008.24 1007.88 1007.56 1007.27 1006.99 1006.69 1006.36 1005.98 1005.54 1005.07 1004.58 1004.09 1003.63 1003.24 1002.95 1002.78 1002.75 1002.86
1014.64 1014.57 1014.50 1014.41 1014.30 1014.15 1013.98 1013.79 1013.59 1013.42 1013.26 1013.14 1013.03 1012.92 1012.80 1012.63 1012.40 1012.10 1011.71 1011.24 1010.72 1010.16 1009.60 1009.06 1008.57 1008.13 1007.76 1007.44 1007.16 1006.89 1006.61 1006.29 1005.92 1005.50 1005.03 1004.52 1004.00 1003.49 1003.03 1002.65 1002.38 1002.23 1002.23
1013.81 1013.70 1013.60 1013.50 1013.41 1013.30 1013.19 1013.08 1013.00 1012.92 1012.88 1012.85 1012.84 1012.81 1012.75 1012.63 1012.43 1012.14 1011.76 1011.29 1010.76 1010.18 1009.60 1009.04 1008.51 1008.05 1007.65 1007.30 1007.00 1006.71 1006.42 1006.11 1005.76 1005.35 1004.89 1004.40 1003.88 1003.36 1002.87 1002.44 1002.10 1001.87 1001.76
Thickness
5779 5778 5776 5776 5777 5776 5775 5774 5774 5773 5772 5772 5772 5773 5772 5772 5772 5771 5768 5764 5761 5760 5759 5758 5756 5755 5754 5753 5751 5750 5749 5747 5746 5745 5745 5744 5743 5741 5740 5738 5737 5736 5734
5777 5777 5777 5776 5776 5776 5775 5774 5773 5773 5772 5772 5771 5772 5772 5772 5770 5768 5768 5764 5762 5761 5760 5758 5756 5754 5753 5752 5751 5750 5749 5747 5746 5745 5745 5744 5743 5742 5741 5739 5737 5736 5735
5776 5777 5777 5776 5776 5775 5774 5773 5773 5772 5771 5771 5771 5771 5771 5770 5769 5767 5767 5765 5764 5761 5760 5757 5755 5754 5753 5752 5751 5749 5748 5747 5746 5745 5745 5744 5744 5742 5741 5739 5737 5736 5735
5776 5776 5776 5776 5775 5775 5775 5773 5772 5771 5770 5770 5769 5770 5770 5768 5767 5766 5766 5765 5764 5763 5760 5758 5755 5754 5752 5751 5750 5749 5748 5746 5745 5745 5745 5744 5744 5742 5741 5739 5738 5736 5734
5774 5775 5775 5774 5775 5775 5774 5774 5772 5770 5768 5767 5768 5768 5769 5768 5767 5766 5765 5764 5763 5761 5761 5757 5754 5753 5752 5751 5750 5748 5747 5746 5745 5745 5745 5744 5743 5743 5741 5739 5737 5735 5734
5773 5774 5775 5773 5774 5773 5771 5770 5767 5767 5766 5766 5768 5767 5767 5767 5767 5766 5765 5764 5762 5761 5760 5758 5755 5753 5751 5750 5749 5748 5747 5746 5745 5745 5745 5743 5743 5742 5740 5738 5736 5735 5733
5772 5772 5773 5771 5771 5771 5768 5768 5767 5766 5765 5765 5765 5764 5766 5768 5766 5766 5765 5764 5763 5761 5759 5757 5756 5754 5752 5749 5748 5747 5747 5745 5745 5744 5744 5743 5742 5741 5740 5738 5736 5734 5733
5770 5772 5769 5771 5769 5767 5766 5765 5764 5764 5764 5765 5762 5760 5759 5760 5762 5765 5763 5761 5761 5761 5759 5758 5755 5753 5753 5752 5750 5748 5746 5745 5744 5743 5743 5742 5741 5740 5739 5737 5736 5734 5732
5769 5768 5767 5768 5766 5767 5764 5762 5761 5760 5760 5762 5762 5758 5753 5751 5756 5761 5760 5760 5759 5759 5759 5758 5756 5754 5752 5751 5750 5748 5746 5745 5743 5742 5742 5742 5740 5739 5737 5736 5735 5733 5731
5767 5766 5765 5764 5764 5765 5761 5761 5761 5760 5757 5757 5759 5758 5757 5755 5750 5750 5755 5758 5757 5756 5756 5757 5757 5754 5751 5750 5749 5747 5746 5744 5743 5742 5741 5741 5740 5738 5736 5735 5733 5731 5730
5764 5763 5762 5762 5760 5761 5759 5758 5757 5756 5757 5755 5755 5755 5753 5752 5752 5746 5744 5748 5753 5755 5755 5754 5753 5752 5751 5749 5748 5747 5745 5743 5742 5741 5740 5740 5739 5737 5735 5734 5732 5730 5729
5761 5760 5760 5758 5758 5757 5755 5754 5753 5753 5753 5751 5752 5752 5751 5748 5747 5745 5743 5743 5745 5750 5752 5753 5751 5750 5749 5749 5747 5744 5742 5741 5740 5739 5739 5738 5737 5736 5735 5733 5731 5729 5728
5758 5756 5757 5754 5754 5753 5752 5751 5750 5750 5749 5747 5746 5747 5748 5748 5747 5745 5742 5741 5741 5746 5747 5749 5750 5749 5749 5747 5745 5741 5740 5739 5738 5737 5736 5736 5735 5734 5732 5731 5730 5728 5727
5756 5753 5752 5751 5750 5750 5750 5748 5749 5747 5745 5743 5744 5742 5743 5745 5745 5743 5741 5738 5736 5739 5742 5743 5746 5746 5746 5745 5743 5739 5739 5736 5735 5735 5734 5733 5732 5731 5730 5729 5727 5726 5725
5753 5750 5748 5747 5746 5745 5744 5743 5743 5741 5740 5740 5740 5739 5739 5740 5740 5740 5739 5736 5732 5729 5734 5738 5739 5742 5741 5740 5738 5737 5737 5734 5733 5732 5732 5731 5730 5729 5728 5726 5725 5724 5723
5747 5746 5744 5743 5741 5740 5739 5738 5738 5736 5734 5734 5733 5732 5732 5735 5735 5735 5734 5734 5732 5729 5728 5734 5735 5737 5734 5736 5734 5734 5734 5732 5731 5730 5729 5728 5727 5726 5725 5724 5722 5721 5720
5743 5741 5740 5738 5736 5735 5734 5732 5733 5731 5729 5729 5728 5728 5727 5727 5728 5729 5729 5728 5728 5726 5723 5727 5731 5731 5728 5728 5729 5730 5731 5730 5731 5728 5726 5725 5724 5723 5722 5721 5719 5718 5717
5740 5738 5736 5734 5732 5731 5729 5727 5726 5726 5724 5723 5722 5721 5720 5722 5720 5721 5721 5722 5721 5720 5718 5717 5721 5724 5723 5723 5723 5723 5727 5729 5729 5727 5724 5722 5721 5720 5719 5717 5716 5715 5714
5736 5735 5732 5730 5728 5726 5724 5723 5721 5720 5719 5718 5717 5715 5714 5714 5713 5714 5713 5714 5715 5717 5715 5713 5715 5717 5718 5719 5717 5719 5722 5722 5724 5724 5721 5719 5717 5716 5715 5714 5712 5711 5710
5732 5729 5728 5725 5723 5722 5719 5718 5717 5715 5714 5713 5712 5710 5709 5708 5706 5706 5707 5707 5708 5708 5708 5708 5709 5711 5711 5713 5711 5712 5714 5716 5718 5721 5719 5717 5715 5713 5712 5711 5710 5708 5707
5729 5724 5722 5720 5719 5717 5714 5711 5710 5710 5708 5707 5706 5705 5704 5701 5699 5698 5700 5701 5700 5700 5701 5702 5702 5704 5704 5704 5704 5707 5707 5709 5711 5714 5713 5713 5712 5711 5709 5708 5706 5705 5704
5722 5719 5717 5714 5712 5711 5705 5701 5700 5703 5702 5700 5699 5699 5699 5697 5694 5691 5690 5689 5689 5690 5692 5692 5695 5695 5695 5696 5697 5698 5699 5699 5700 5706 5705 5707 5708 5707 5708 5708 5705 5702 5700
5716 5713 5711 5708 5705 5701 5696 5694 5692 5693 5695 5693 5692 5690 5691 5692 5688 5687 5686 5684 5683 5682 5681 5683 5686 5687 5688 5689 5688 5689 5689 5689 5690 5696 5696 5698 5701 5700 5703 5704 5700 5698 5696
5710 5707 5704 5701 5698 5695 5689 5687 5684 5687 5688 5687 5685 5683 5681 5680 5679 5677 5678 5680 5680 5681 5678 5678 5679 5681 5682 5681 5680 5681 5681 5682 5685 5688 5689 5688 5693 5693 5696 5696 5694 5692 5690
5704 5701 5699 5695 5692 5688 5682 5679 5676 5681 5681 5680 5679 5677 5674 5672 5668 5666 5668 5669 5671 5673 5673 5672 5671 5672 5671 5671 5671 5672 5674 5674 5676 5681 5682 5680 5683 5684 5686 5687 5687 5685 5685
5698 5696 5693 5690 5686 5682 5677 5672 5668 5674 5673 5673 5672 5670 5665 5661 5659 5656 5658 5659 5660 5662 5665 5667 5665 5665 5665 5666 5664 5664 5666 5666 5668 5671 5674 5672 5673 5674 5674 5679 5680 5679 5678